Location: �chenoz-la-M�line
(47.6009°N, 6.1354°E)
Time: 16:26:08
(UTC+00:00)

SL-16 R/B - Pass Details

Date: 27 January 2021
Orbit: 839 x 850 km, 71.0° (Epoch: 04 March)

Event Time Altitude Azimuth Distance (km) Brightness Sun altitude
Rises 05:10:33 0° 206° (SSW) 3,382 5.1 -19.7°
Reaches altitude 10° 05:12:58 10° 207° (SSW) 2,452 4.4 -19.3°
Maximum altitude 05:18:37 88° 297° (WNW) 850 2.1 -18.4°
Drops below altitude 10° 05:24:19 10° 27° (NNE) 2,475 4.9 -17.4°
Sets 05:26:47 0° 28° (NNE) 3,416 5.6 -17.0°
